Time,TemperatureF,DewpointF,PressureIn,WindDirection,WindDirectionDegrees,WindSpeedMPH,WindSpeedGustMPH,Humidity,HourlyPrecipIn,Conditions,Clouds,dailyrainin,SoftwareType,DateUTC
2013-03-05 00:00:00,31.8,0.0,29.70,SSW,210,5.0,11.0,0,0.00,,,0.00,VWS V14.01,2013-03-05 05:00:00,
2013-03-05 00:10:00,31.8,0.0,29.70,SW,215,5.0,16.0,0,0.00,,,0.00,VWS V14.01,2013-03-05 05:10:00,
2013-03-05 00:20:00,31.6,0.0,29.72,SW,215,2.0,14.0,0,0.00,,,0.00,VWS V14.01,2013-03-05 05:20:00,
2013-03-05 00:30:00,31.6,0.0,29.72,SSW,197,0.0,9.0,0,0.00,,,0.00,VWS V14.01,2013-03-05 05:30:00,
2013-03-05 00:40:00,31.5,0.0,29.72,WSW,240,5.0,12.0,0,0.00,,,0.00,VWS V14.01,2013-03-05 05:40:00,
2013-03-05 00:50:00,31.6,0.0,29.72,SSW,207,1.0,18.0,0,0.00,,,0.00,VWS V14.01,2013-03-05 05:50:00,
2013-03-05 01:00:00,31.5,0.0,29.72,WSW,255,4.0,15.0,0,0.00,,,0.00,VWS V14.01,2013-03-05 06:00:00,
2013-03-05 01:10:00,31.6,0.0,29.72,SW,215,3.0,12.0,0,0.00,,,0.00,VWS V14.01,2013-03-05 06:10:00,
2013-03-05 01:20:00,31.6,0.0,29.72,SSE,163,2.0,12.0,0,0.00,,,0.00,VWS V14.01,2013-03-05 06:20:00,
2013-03-05 01:30:00,31.8,0.0,29.73,SSW,200,3.0,13.0,0,0.00,,,0.00,VWS V14.01,2013-03-05 06:30:00,
2013-03-05 01:40:00,31.8,0.0,29.73,SW,223,2.0,12.0,0,0.00,,,0.00,VWS V14.01,2013-03-05 06:40:00,
2013-03-05 01:50:00,31.9,0.0,29.73,NE,46,3.0,15.0,0,0.00,,,0.00,VWS V14.01,2013-03-05 06:50:00,
2013-03-05 02:00:00,31.9,0.0,29.73,SW,235,6.0,13.0,0,0.00,,,0.00,VWS V14.01,2013-03-05 07:00:00,
2013-03-05 02:10:00,31.9,0.0,29.73,SSW,211,5.0,15.0,0,0.00,,,0.00,VWS V14.01,2013-03-05 07:10:00,
2013-03-05 02:20:00,31.8,0.0,29.73,SSW,205,2.0,10.0,0,0.00,,,0.00,VWS V14.01,2013-03-05 07:20:00,
2013-03-05 02:30:00,31.6,0.0,29.73,SSW,207,4.0,13.0,0,0.00,,,0.00,VWS V14.01,2013-03-05 07:30:00,
2013-03-05 02:40:00,31.6,0.0,29.73,SSW,213,2.0,12.0,0,0.00,,,0.00,VWS V14.01,2013-03-05 07:40:00,
2013-03-05 02:50:00,31.5,0.0,29.74,East,89,2.0,10.0,0,0.00,,,0.00,VWS V14.01,2013-03-05 07:50:00,
2013-03-05 03:00:00,31.3,0.0,29.74,South,184,2.0,9.0,0,0.00,,,0.00,VWS V14.01,2013-03-05 08:00:00,
2013-03-05 03:10:00,31.3,0.0,29.74,WSW,255,4.0,11.0,0,0.00,,,0.00,VWS V14.01,2013-03-05 08:10:00,
2013-03-05 03:20:00,31.2,0.0,29.74,SW,236,3.0,8.0,0,0.00,,,0.00,VWS V14.01,2013-03-05 08:20:00,
2013-03-05 03:30:00,31.2,0.0,29.75,South,182,7.0,11.0,0,0.00,,,0.00,VWS V14.01,2013-03-05 08:30:00,
2013-03-05 03:40:00,31.3,0.0,29.75,SSW,207,2.0,7.0,0,0.00,,,0.00,VWS V14.01,2013-03-05 08:40:00,
2013-03-05 03:50:00,31.3,0.0,29.75,SW,223,1.0,15.0,0,0.00,,,0.00,VWS V14.01,2013-03-05 08:50:00,
2013-03-05 04:00:00,31.3,0.0,29.76,SSW,209,3.0,7.0,0,0.00,,,0.00,VWS V14.01,2013-03-05 09:00:00,
2013-03-05 04:10:00,31.2,0.0,29.76,SSW,201,2.0,6.0,0,0.00,,,0.00,VWS V14.01,2013-03-05 09:10:00,
2013-03-05 04:20:00,31.2,0.0,29.76,South,191,3.0,5.0,0,0.00,,,0.00,VWS V14.01,2013-03-05 09:20:00,
2013-03-05 04:30:00,30.9,0.0,29.77,South,188,2.0,4.0,0,0.00,,,0.00,VWS V14.01,2013-03-05 09:30:00,
2013-03-05 04:40:00,30.7,0.0,29.77,South,181,0.0,4.0,0,0.00,,,0.00,VWS V14.01,2013-03-05 09:40:00,
2013-03-05 04:50:00,30.7,0.0,29.77,SSW,198,1.0,10.0,0,0.00,,,0.00,VWS V14.01,2013-03-05 09:50:00,
2013-03-05 05:00:00,30.9,0.0,29.77,SSW,198,1.0,11.0,0,0.00,,,0.00,VWS V14.01,2013-03-05 10:00:00,
2013-03-05 05:10:00,30.9,0.0,29.77,SW,223,2.0,12.0,0,0.00,,,0.00,VWS V14.01,2013-03-05 10:10:00,
2013-03-05 05:20:00,30.9,0.0,29.78,SSW,211,1.0,6.0,0,0.00,,,0.00,VWS V14.01,2013-03-05 10:20:00,
2013-03-05 05:30:00,30.9,0.0,29.78,SE,138,2.0,5.0,0,0.00,,,0.00,VWS V14.01,2013-03-05 10:30:00,
2013-03-05 05:40:00,30.7,0.0,29.78,West,269,0.0,11.0,0,0.00,,,0.00,VWS V14.01,2013-03-05 10:40:00,
2013-03-05 05:50:00,30.7,0.0,29.79,SSW,195,1.0,6.0,0,0.00,,,0.00,VWS V14.01,2013-03-05 10:50:00,
2013-03-05 06:00:00,30.7,0.0,29.80,SSW,198,2.0,7.0,0,0.00,,,0.00,VWS V14.01,2013-03-05 11:00:00,
2013-03-05 06:10:00,30.7,0.0,29.80,South,171,0.0,8.0,0,0.00,,,0.00,VWS V14.01,2013-03-05 11:10:00,
2013-03-05 06:20:00,30.7,0.0,29.79,SSW,200,1.0,10.0,0,0.00,,,0.00,VWS V14.01,2013-03-05 11:20:00,
2013-03-05 06:30:00,30.7,0.0,29.80,SSW,208,3.0,9.0,0,0.00,,,0.00,VWS V14.01,2013-03-05 11:30:00,
2013-03-05 06:40:00,30.6,0.0,29.80,SW,225,1.0,7.0,0,0.00,,,0.00,VWS V14.01,2013-03-05 11:40:00,
2013-03-05 06:50:00,30.6,0.0,29.80,SW,227,1.0,10.0,0,0.00,,,0.00,VWS V14.01,2013-03-05 11:50:00,
2013-03-05 07:00:00,31.0,0.0,29.81,SW,233,1.0,10.0,0,0.00,,,0.00,VWS V14.01,2013-03-05 12:00:00,
2013-03-05 07:10:00,31.3,0.0,29.81,SW,235,0.0,6.0,0,0.00,,,0.00,VWS V14.01,2013-03-05 12:10:00,
2013-03-05 07:20:00,31.8,0.0,29.81,SSW,194,2.0,12.0,0,0.00,,,0.00,VWS V14.01,2013-03-05 12:20:00,
2013-03-05 07:30:00,32.2,0.0,29.82,SSE,155,1.0,10.0,0,0.00,,,0.00,VWS V14.01,2013-03-05 12:30:00,
2013-03-05 07:40:00,32.7,0.0,29.82,SW,236,3.0,12.0,0,0.00,,,0.00,VWS V14.01,2013-03-05 12:40:00,
2013-03-05 07:50:00,33.1,0.0,29.82,SSW,194,0.0,9.0,0,0.00,,,0.00,VWS V14.01,2013-03-05 12:50:00,
2013-03-05 08:00:00,33.7,0.0,29.83,SSW,211,4.0,12.0,0,0.00,,,0.00,VWS V14.01,2013-03-05 13:00:00,
2013-03-05 08:10:00,34.1,0.0,29.83,South,179,6.0,10.0,0,0.00,,,0.00,VWS V14.01,2013-03-05 13:10:00,
2013-03-05 08:20:00,34.3,0.0,29.83,WSW,238,2.0,14.0,0,0.00,,,0.00,VWS V14.01,2013-03-05 13:20:00,
2013-03-05 08:30:00,34.7,0.0,29.83,SW,217,5.0,18.0,0,0.00,,,0.00,VWS V14.01,2013-03-05 13:30:00,
2013-03-05 08:40:00,35.2,0.0,29.83,SSW,204,1.0,10.0,0,0.00,,,0.00,VWS V14.01,2013-03-05 13:40:00,
2013-03-05 08:50:00,35.5,0.0,29.83,SW,234,8.0,15.0,0,0.00,,,0.00,VWS V14.01,2013-03-05 13:50:00,
2013-03-05 09:00:00,35.6,0.0,29.83,East,80,0.0,14.0,0,0.00,,,0.00,VWS V14.01,2013-03-05 14:00:00,
2013-03-05 09:10:00,35.8,0.0,29.83,WSW,242,7.0,15.0,0,0.00,,,0.00,VWS V14.01,2013-03-05 14:10:00,
2013-03-05 09:20:00,36.3,0.0,29.83,NE,49,1.0,12.0,0,0.00,,,0.00,VWS V14.01,2013-03-05 14:20:00,
2013-03-05 09:30:00,36.8,0.0,29.84,WSW,247,1.0,9.0,0,0.00,,,0.00,VWS V14.01,2013-03-05 14:30:00,
2013-03-05 09:40:00,36.9,0.0,29.84,SSW,205,5.0,19.0,0,0.00,,,0.00,VWS V14.01,2013-03-05 14:40:00,
2013-03-05 09:50:00,37.0,0.0,29.84,SSW,206,2.0,15.0,0,0.00,,,0.00,VWS V14.01,2013-03-05 14:50:00,
2013-03-05 10:00:00,37.6,0.0,29.84,East,101,3.0,13.0,0,0.00,,,0.00,VWS V14.01,2013-03-05 15:00:00,
2013-03-05 10:10:00,37.9,0.0,29.84,East,89,3.0,13.0,0,0.00,,,0.00,VWS V14.01,2013-03-05 15:10:00,
2013-03-05 10:20:00,38.3,0.0,29.84,SSW,206,1.0,6.0,0,0.00,,,0.00,VWS V14.01,2013-03-05 15:20:00,
2013-03-05 10:30:00,38.8,0.0,29.84,SSW,205,2.0,11.0,0,0.00,,,0.00,VWS V14.01,2013-03-05 15:30:00,
2013-03-05 10:40:00,39.1,0.0,29.84,SW,234,4.0,11.0,0,0.00,,,0.00,VWS V14.01,2013-03-05 15:40:00,
2013-03-05 10:50:00,39.5,0.0,29.84,SW,227,1.0,6.0,0,0.00,,,0.00,VWS V14.01,2013-03-05 15:50:00,
2013-03-05 11:00:00,39.6,0.0,29.83,East,98,0.0,7.0,0,0.00,,,0.00,VWS V14.01,2013-03-05 16:00:00,
2013-03-05 11:10:00,40.1,0.0,29.83,WSW,242,2.0,6.0,0,0.00,,,0.00,VWS V14.01,2013-03-05 16:10:00,
2013-03-05 11:20:00,40.5,0.0,29.83,SSE,167,1.0,6.0,0,0.00,,,0.00,VWS V14.01,2013-03-05 16:20:00,
2013-03-05 11:30:00,40.6,0.0,29.83,SW,224,2.0,9.0,0,0.00,,,0.00,VWS V14.01,2013-03-05 16:30:00,
2013-03-05 11:40:00,41.1,0.0,29.83,WSW,242,2.0,10.0,0,0.00,,,0.00,VWS V14.01,2013-03-05 16:40:00,
2013-03-05 11:50:00,41.5,0.0,29.83,SW,236,0.0,11.0,0,0.00,,,0.00,VWS V14.01,2013-03-05 16:50:00,
2013-03-05 12:00:00,41.6,0.0,29.83,SSE,161,1.0,12.0,0,0.00,,,0.00,VWS V14.01,2013-03-05 17:00:00,
2013-03-05 12:10:00,41.8,0.0,29.83,NE,50,3.0,10.0,0,0.00,,,0.00,VWS V14.01,2013-03-05 17:10:00,
2013-03-05 12:20:00,42.1,0.0,29.83,SW,229,1.0,10.0,0,0.00,,,0.00,VWS V14.01,2013-03-05 17:20:00,
2013-03-05 12:30:00,42.3,0.0,29.83,ENE,61,3.0,4.0,0,0.00,,,0.00,VWS V14.01,2013-03-05 17:30:00,
2013-03-05 12:40:00,42.8,0.0,29.83,WSW,257,4.0,4.0,0,0.00,,,0.00,VWS V14.01,2013-03-05 17:40:00,
2013-03-05 12:50:00,43.1,0.0,29.82,West,261,4.0,7.0,0,0.00,,,0.00,VWS V14.01,2013-03-05 17:50:00,
2013-03-05 13:00:00,43.3,0.0,29.82,SSE,161,3.0,5.0,0,0.00,,,0.00,VWS V14.01,2013-03-05 18:00:00,
2013-03-05 13:10:00,43.6,0.0,29.82,SW,236,0.0,9.0,0,0.00,,,0.00,VWS V14.01,2013-03-05 18:10:00,
2013-03-05 13:20:00,43.8,0.0,29.82,SW,226,0.0,0.0,0,0.00,,,0.00,VWS V14.01,2013-03-05 18:20:00,
2013-03-05 13:30:00,43.9,0.0,29.82,NE,53,0.0,0.0,0,0.00,,,0.00,VWS V14.01,2013-03-05 18:30:00,
2013-03-05 13:40:00,44.2,0.0,29.82,South,187,0.0,0.0,0,0.00,,,0.00,VWS V14.01,2013-03-05 18:40:00,
2013-03-05 13:50:00,44.3,0.0,29.83,ENE,74,0.0,0.0,0,0.00,,,0.00,VWS V14.01,2013-03-05 18:50:00,
2013-03-05 14:00:00,44.8,0.0,29.83,SSW,199,0.0,0.0,0,0.00,,,0.00,VWS V14.01,2013-03-05 19:00:00,
2013-03-05 14:10:00,45.2,0.0,29.83,South,190,0.0,0.0,0,0.00,,,0.00,VWS V14.01,2013-03-05 19:10:00,
2013-03-05 14:20:00,45.2,0.0,29.83,SSW,211,0.0,0.0,0,0.00,,,0.00,VWS V14.01,2013-03-05 19:20:00,
2013-03-05 14:30:00,45.2,0.0,29.83,East,95,0.0,0.0,0,0.00,,,0.00,VWS V14.01,2013-03-05 19:30:00,
2013-03-05 14:40:00,45.4,0.0,29.83,SW,215,0.0,0.0,0,0.00,,,0.00,VWS V14.01,2013-03-05 19:40:00,
2013-03-05 14:50:00,45.4,0.0,29.83,SSW,205,0.0,0.0,0,0.00,,,0.00,VWS V14.01,2013-03-05 19:50:00,
2013-03-05 15:00:00,45.7,0.0,29.84,SE,130,0.0,0.0,0,0.00,,,0.00,VWS V14.01,2013-03-05 20:00:00,
2013-03-05 15:10:00,45.7,0.0,29.84,SSW,200,0.0,0.0,0,0.00,,,0.00,VWS V14.01,2013-03-05 20:10:00,
2013-03-05 15:20:00,45.7,0.0,29.84,SSE,153,0.0,0.0,0,0.00,,,0.00,VWS V14.01,2013-03-05 20:20:00,
2013-03-05 15:30:00,46.0,0.0,29.84,NE,55,0.0,0.0,0,0.00,,,0.00,VWS V14.01,2013-03-05 20:30:00,
2013-03-05 15:40:00,46.0,0.0,29.84,SSW,196,0.0,0.0,0,0.00,,,0.00,VWS V14.01,2013-03-05 20:40:00,
2013-03-05 15:50:00,46.1,0.0,29.84,South,186,0.0,0.0,0,0.00,,,0.00,VWS V14.01,2013-03-05 20:50:00,
2013-03-05 16:00:00,46.2,0.0,29.84,ESE,109,0.0,0.0,0,0.00,,,0.00,VWS V14.01,2013-03-05 21:00:00,
2013-03-05 16:10:00,45.8,0.0,29.84,ESE,109,0.0,0.0,0,0.00,,,0.00,VWS V14.01,2013-03-05 21:10:00,
2013-03-05 16:20:00,45.7,0.0,29.84,SSE,165,0.0,0.0,0,0.00,,,0.00,VWS V14.01,2013-03-05 21:20:00,
2013-03-05 16:30:00,45.5,0.0,29.84,SE,133,0.0,0.0,0,0.00,,,0.00,VWS V14.01,2013-03-05 21:30:00,
2013-03-05 16:40:00,45.2,0.0,29.84,SE,126,0.0,0.0,0,0.00,,,0.00,VWS V14.01,2013-03-05 21:40:00,
2013-03-05 16:50:00,44.9,0.0,29.84,SE,126,0.0,0.0,0,0.00,,,0.00,VWS V14.01,2013-03-05 21:50:00,
2013-03-05 17:00:00,44.6,0.0,29.84,SE,126,0.0,0.0,0,0.00,,,0.00,VWS V14.01,2013-03-05 22:00:00,
2013-03-05 17:10:00,44.3,0.0,29.84,SE,126,0.0,0.0,0,0.00,,,0.00,VWS V14.01,2013-03-05 22:10:00,
2013-03-05 17:20:00,43.8,0.0,29.84,SE,126,0.0,0.0,0,0.00,,,0.00,VWS V14.01,2013-03-05 22:20:00,
2013-03-05 17:30:00,43.3,0.0,29.85,SE,126,0.0,0.0,0,0.00,,,0.00,VWS V14.01,2013-03-05 22:30:00,
2013-03-05 17:40:00,42.9,0.0,29.85,SE,126,0.0,0.0,0,0.00,,,0.00,VWS V14.01,2013-03-05 22:40:00,
2013-03-05 17:50:00,42.8,0.0,29.85,SE,126,0.0,0.0,0,0.00,,,0.00,VWS V14.01,2013-03-05 22:50:00,
2013-03-05 18:00:00,42.2,0.0,29.86,SE,126,0.0,0.0,0,0.00,,,0.00,VWS V14.01,2013-03-05 23:00:00,
2013-03-05 18:10:00,41.9,0.0,29.86,SE,126,0.0,0.0,0,0.00,,,0.00,VWS V14.01,2013-03-05 23:10:00,
2013-03-05 18:20:00,41.6,0.0,29.86,SE,126,0.0,0.0,0,0.00,,,0.00,VWS V14.01,2013-03-05 23:20:00,
2013-03-05 18:30:00,41.5,0.0,29.87,SE,126,0.0,0.0,0,0.00,,,0.00,VWS V14.01,2013-03-05 23:30:00,
2013-03-05 18:40:00,41.2,0.0,29.87,SE,126,0.0,0.0,0,0.00,,,0.00,VWS V14.01,2013-03-05 23:40:00,
2013-03-05 18:50:00,41.1,0.0,29.87,SE,126,0.0,0.0,0,0.00,,,0.00,VWS V14.01,2013-03-05 23:50:00,
2013-03-05 19:00:00,40.8,0.0,29.88,SE,126,0.0,0.0,0,0.00,,,0.00,VWS V14.01,2013-03-06 00:00:00,
2013-03-05 19:10:00,40.6,0.0,29.88,SE,126,0.0,0.0,0,0.00,,,0.00,VWS V14.01,2013-03-06 00:10:00,
2013-03-05 19:20:00,40.5,0.0,29.89,SE,126,0.0,0.0,0,0.00,,,0.00,VWS V14.01,2013-03-06 00:20:00,
2013-03-05 19:30:00,40.2,0.0,29.89,SE,126,0.0,0.0,0,0.00,,,0.00,VWS V14.01,2013-03-06 00:30:00,
2013-03-05 19:40:00,40.1,0.0,29.89,SE,126,0.0,0.0,0,0.00,,,0.00,VWS V14.01,2013-03-06 00:40:00,
2013-03-05 19:50:00,39.8,0.0,29.88,SE,126,0.0,0.0,0,0.00,,,0.00,VWS V14.01,2013-03-06 00:50:00,
2013-03-05 20:00:00,39.5,0.0,29.89,SE,124,0.0,0.0,0,0.00,,,0.00,VWS V14.01,2013-03-06 01:00:00,
2013-03-05 20:10:00,39.5,0.0,29.89,SE,126,0.0,0.0,0,0.00,,,0.00,VWS V14.01,2013-03-06 01:10:00,
2013-03-05 20:20:00,39.6,0.0,29.90,SE,126,0.0,0.0,0,0.00,,,0.00,VWS V14.01,2013-03-06 01:20:00,
2013-03-05 20:30:00,39.6,0.0,29.89,SE,126,0.0,0.0,0,0.00,,,0.00,VWS V14.01,2013-03-06 01:30:00,
2013-03-05 20:40:00,39.8,0.0,29.89,SE,126,0.0,0.0,0,0.00,,,0.00,VWS V14.01,2013-03-06 01:40:00,
2013-03-05 20:50:00,39.8,0.0,29.89,SE,126,0.0,0.0,0,0.00,,,0.00,VWS V14.01,2013-03-06 01:50:00,
2013-03-05 21:00:00,39.6,0.0,29.89,SE,126,0.0,0.0,0,0.00,,,0.00,VWS V14.01,2013-03-06 02:00:00,
2013-03-05 21:10:00,39.5,0.0,29.89,SE,126,0.0,0.0,0,0.00,,,0.00,VWS V14.01,2013-03-06 02:10:00,
2013-03-05 21:20:00,39.3,0.0,29.89,SE,126,0.0,0.0,0,0.00,,,0.00,VWS V14.01,2013-03-06 02:20:00,
2013-03-05 21:30:00,39.2,0.0,29.89,SE,126,0.0,0.0,0,0.00,,,0.00,VWS V14.01,2013-03-06 02:30:00,
2013-03-05 21:40:00,38.9,0.0,29.89,SE,126,0.0,0.0,0,0.00,,,0.00,VWS V14.01,2013-03-06 02:40:00,
2013-03-05 21:50:00,38.6,0.0,29.89,SE,126,0.0,0.0,0,0.00,,,0.00,VWS V14.01,2013-03-06 02:50:00,
2013-03-05 22:00:00,38.6,0.0,29.89,SE,126,0.0,0.0,0,0.00,,,0.00,VWS V14.01,2013-03-06 03:00:00,
2013-03-05 22:10:00,38.5,0.0,29.89,SE,126,0.0,0.0,0,0.00,,,0.00,VWS V14.01,2013-03-06 03:10:00,
2013-03-05 22:20:00,38.3,0.0,29.89,SE,126,0.0,0.0,0,0.00,,,0.00,VWS V14.01,2013-03-06 03:20:00,
2013-03-05 22:30:00,38.2,0.0,29.89,SE,126,0.0,0.0,0,0.00,,,0.00,VWS V14.01,2013-03-06 03:30:00,
2013-03-05 22:40:00,37.9,0.0,29.89,SE,126,0.0,0.0,0,0.00,,,0.00,VWS V14.01,2013-03-06 03:40:00,
2013-03-05 22:50:00,37.3,0.0,29.88,SE,126,0.0,0.0,0,0.00,,,0.00,VWS V14.01,2013-03-06 03:50:00,
2013-03-05 23:00:00,36.8,0.0,29.88,SE,126,0.0,0.0,0,0.00,,,0.00,VWS V14.01,2013-03-06 04:00:00,
2013-03-05 23:10:00,36.3,0.0,29.88,SE,126,0.0,0.0,0,0.00,,,0.00,VWS V14.01,2013-03-06 04:10:00,
2013-03-05 23:20:00,35.3,0.0,29.88,SE,126,0.0,0.0,0,0.00,,,0.00,VWS V14.01,2013-03-06 04:20:00,
2013-03-05 23:30:00,34.4,0.0,29.88,SE,126,0.0,0.0,0,0.00,,,0.00,VWS V14.01,2013-03-06 04:30:00,
2013-03-05 23:40:00,34.1,0.0,29.88,SE,126,0.0,0.0,0,0.00,,,0.00,VWS V14.01,2013-03-06 04:40:00,
2013-03-05 23:50:00,33.8,0.0,29.88,SE,126,0.0,0.0,0,0.00,,,0.00,VWS V14.01,2013-03-06 04:50:00,